﻿測定場所 (Monitoring sites),日付 (Measurement date),時間 (Measurement time),線量率 最大値 (max) μGy/h,線量率 最小値 (min) μGy/h,線量率 平均値 (average) μGy/h,
江戸川 (Edogawa),2015-03-01,23:01～24:00,0.0676,0.0605,0.0634,
江戸川 (Edogawa),2015-03-01,22:01～23:00,0.0737,0.0648,0.0692,
江戸川 (Edogawa),2015-03-01,21:01～22:00,0.0801,0.0709,0.0749,
江戸川 (Edogawa),2015-03-01,20:01～21:00,0.0852,0.0716,0.0774,
江戸川 (Edogawa),2015-03-01,19:01～20:00,0.0842,0.0714,0.0764,
江戸川 (Edogawa),2015-03-01,18:01～19:00,0.0826,0.0720,0.0777,
江戸川 (Edogawa),2015-03-01,17:01～18:00,0.0827,0.0696,0.0752,
江戸川 (Edogawa),2015-03-01,16:01～17:00,0.0763,0.0693,0.0727,
江戸川 (Edogawa),2015-03-01,15:01～16:00,0.0787,0.0699,0.0736,
江戸川 (Edogawa),2015-03-01,14:01～15:00,0.0805,0.0690,0.0727,
江戸川 (Edogawa),2015-03-01,13:01～14:00,0.0737,0.0629,0.0678,
江戸川 (Edogawa),2015-03-01,12:01～13:00,0.0679,0.0595,0.0633,
江戸川 (Edogawa),2015-03-01,11:01～12:00,0.0648,0.0575,0.0611,
江戸川 (Edogawa),2015-03-01,10:01～11:00,0.0650,0.0571,0.0611,
江戸川 (Edogawa),2015-03-01,09:01～10:00,0.0667,0.0584,0.0620,
江戸川 (Edogawa),2015-03-01,08:01～09:00,0.0661,0.0589,0.0626,
江戸川 (Edogawa),2015-03-01,07:01～08:00,0.0665,0.0590,0.0620,
江戸川 (Edogawa),2015-03-01,06:01～07:00,0.0660,0.0593,0.0623,
江戸川 (Edogawa),2015-03-01,05:01～06:00,0.0648,0.0587,0.0620,
江戸川 (Edogawa),2015-03-01,04:01～05:00,0.0658,0.0577,0.0619,
江戸川 (Edogawa),2015-03-01,03:01～04:00,0.0651,0.0575,0.0624,
江戸川 (Edogawa),2015-03-01,02:01～03:00,0.0663,0.0583,0.0616,
江戸川 (Edogawa),2015-03-01,01:01～02:00,0.0660,0.0586,0.0623,
江戸川 (Edogawa),2015-03-01,00:01～01:00,0.0651,0.0591,0.0620,
江戸川 (Edogawa),2015-02-28,23:01～24:00,0.0652,0.0591,0.0618,
江戸川 (Edogawa),2015-02-28,22:01～23:00,0.0651,0.0591,0.0617,
江戸川 (Edogawa),2015-02-28,21:01～22:00,0.0650,0.0588,0.0617,
江戸川 (Edogawa),2015-02-28,20:01～21:00,0.0647,0.0579,0.0615,
江戸川 (Edogawa),2015-02-28,19:01～20:00,0.0656,0.0570,0.0616,
江戸川 (Edogawa),2015-02-28,18:01～19:00,0.0648,0.0580,0.0613,
江戸川 (Edogawa),2015-02-28,17:01～18:00,0.0656,0.0584,0.0617,
江戸川 (Edogawa),2015-02-28,16:01～17:00,0.0661,0.0598,0.0621,
江戸川 (Edogawa),2015-02-28,15:01～16:00,0.0669,0.0583,0.0624,
江戸川 (Edogawa),2015-02-28,14:01～15:00,0.0648,0.0593,0.0621,
江戸川 (Edogawa),2015-02-28,13:01～14:00,0.0666,0.0586,0.0624,
江戸川 (Edogawa),2015-02-28,12:01～13:00,0.0658,0.0571,0.0621,
江戸川 (Edogawa),2015-02-28,11:01～12:00,0.0647,0.0585,0.0616,
江戸川 (Edogawa),2015-02-28,10:01～11:00,0.0641,0.0588,0.0616,
江戸川 (Edogawa),2015-02-28,09:01～10:00,0.0645,0.0588,0.0611,
江戸川 (Edogawa),2015-02-28,08:01～09:00,0.0636,0.0583,0.0611,
江戸川 (Edogawa),2015-02-28,07:01～08:00,0.0641,0.0581,0.0610,
江戸川 (Edogawa),2015-02-28,06:01～07:00,0.0641,0.0580,0.0610,
江戸川 (Edogawa),2015-02-28,05:01～06:00,0.0646,0.0579,0.0610,
江戸川 (Edogawa),2015-02-28,04:01～05:00,0.0636,0.0581,0.0611,
江戸川 (Edogawa),2015-02-28,03:01～04:00,0.0647,0.0591,0.0619,
江戸川 (Edogawa),2015-02-28,02:01～03:00,0.0658,0.0586,0.0619,
江戸川 (Edogawa),2015-02-28,01:01～02:00,0.0655,0.0588,0.0623,
江戸川 (Edogawa),2015-02-28,00:01～01:00,0.0648,0.0586,0.0618,
江戸川 (Edogawa),2015-02-27,23:01～24:00,0.0661,0.0595,0.0622,
江戸川 (Edogawa),2015-02-27,22:01～23:00,0.0662,0.0575,0.0623,
江戸川 (Edogawa),2015-02-27,21:01～22:00,0.0645,0.0585,0.0620,
江戸川 (Edogawa),2015-02-27,20:01～21:00,0.0662,0.0584,0.0621,
江戸川 (Edogawa),2015-02-27,19:01～20:00,0.0659,0.0568,0.0620,
江戸川 (Edogawa),2015-02-27,18:01～19:00,0.0654,0.0582,0.0620,
江戸川 (Edogawa),2015-02-27,17:01～18:00,0.0654,0.0583,0.0624,
江戸川 (Edogawa),2015-02-27,16:01～17:00,0.0661,0.0591,0.0625,
江戸川 (Edogawa),2015-02-27,15:01～16:00,0.0668,0.0598,0.0626,
江戸川 (Edogawa),2015-02-27,14:01～15:00,0.0648,0.0579,0.0616,
江戸川 (Edogawa),2015-02-27,13:01～14:00,0.0644,0.0575,0.0613,
江戸川 (Edogawa),2015-02-27,12:01～13:00,0.0643,0.0582,0.0616,
江戸川 (Edogawa),2015-02-27,11:01～12:00,0.0653,0.0589,0.0622,
江戸川 (Edogawa),2015-02-27,10:01～11:00,0.0657,0.0581,0.0619,
江戸川 (Edogawa),2015-02-27,09:01～10:00,0.0658,0.0590,0.0621,
江戸川 (Edogawa),2015-02-27,08:01～09:00,0.0672,0.0581,0.0620,
江戸川 (Edogawa),2015-02-27,07:01～08:00,0.0652,0.0574,0.0616,
江戸川 (Edogawa),2015-02-27,06:01～07:00,0.0653,0.0586,0.0615,
江戸川 (Edogawa),2015-02-27,05:01～06:00,0.0645,0.0580,0.0611,
江戸川 (Edogawa),2015-02-27,04:01～05:00,0.0639,0.0572,0.0610,
江戸川 (Edogawa),2015-02-27,03:01～04:00,0.0640,0.0576,0.0611,
江戸川 (Edogawa),2015-02-27,02:01～03:00,0.0644,0.0565,0.0610,
江戸川 (Edogawa),2015-02-27,01:01～02:00,0.0653,0.0572,0.0610,
江戸川 (Edogawa),2015-02-27,00:01～01:00,0.0646,0.0578,0.0611,
江戸川 (Edogawa),2015-02-26,23:01～24:00,0.0648,0.0587,0.0615,
江戸川 (Edogawa),2015-02-26,22:01～23:00,0.0658,0.0591,0.0628,
江戸川 (Edogawa),2015-02-26,21:01～22:00,0.0771,0.0625,0.0682,
江戸川 (Edogawa),2015-02-26,20:01～21:00,0.0830,0.0721,0.0776,
江戸川 (Edogawa),2015-02-26,19:01～20:00,0.0837,0.0722,0.0770,
江戸川 (Edogawa),2015-02-26,18:01～19:00,0.0806,0.0684,0.0728,
江戸川 (Edogawa),2015-02-26,17:01～18:00,0.0796,0.0699,0.0733,
江戸川 (Edogawa),2015-02-26,16:01～17:00,0.0828,0.0720,0.0771,
江戸川 (Edogawa),2015-02-26,15:01～16:00,0.0813,0.0724,0.0767,
江戸川 (Edogawa),2015-02-26,14:01～15:00,0.0789,0.0710,0.0745,
江戸川 (Edogawa),2015-02-26,13:01～14:00,0.0814,0.0695,0.0729,
江戸川 (Edogawa),2015-02-26,12:01～13:00,0.0751,0.0671,0.0716,
江戸川 (Edogawa),2015-02-26,11:01～12:00,0.0703,0.0622,0.0657,
江戸川 (Edogawa),2015-02-26,10:01～11:00,0.0684,0.0626,0.0651,
江戸川 (Edogawa),2015-02-26,09:01～10:00,0.0677,0.0596,0.0638,
江戸川 (Edogawa),2015-02-26,08:01～09:00,0.0670,0.0597,0.0631,
江戸川 (Edogawa),2015-02-26,07:01～08:00,0.0645,0.0578,0.0617,
江戸川 (Edogawa),2015-02-26,06:01～07:00,0.0647,0.0580,0.0610,
江戸川 (Edogawa),2015-02-26,05:01～06:00,0.0643,0.0573,0.0610,
江戸川 (Edogawa),2015-02-26,04:01～05:00,0.0648,0.0580,0.0613,
江戸川 (Edogawa),2015-02-26,03:01～04:00,0.0658,0.0578,0.0613,
江戸川 (Edogawa),2015-02-26,02:01～03:00,0.0640,0.0590,0.0615,
江戸川 (Edogawa),2015-02-26,01:01～02:00,0.0643,0.0577,0.0610,
江戸川 (Edogawa),2015-02-26,00:01～01:00,0.0643,0.0559,0.0611,
江戸川 (Edogawa),2015-02-25,23:01～24:00,0.0637,0.0577,0.0607,
江戸川 (Edogawa),2015-02-25,22:01～23:00,0.0648,0.0572,0.0610,
江戸川 (Edogawa),2015-02-25,21:01～22:00,0.0648,0.0580,0.0611,
江戸川 (Edogawa),2015-02-25,20:01～21:00,0.0646,0.0570,0.0610,
江戸川 (Edogawa),2015-02-25,19:01～20:00,0.0644,0.0588,0.0612,
江戸川 (Edogawa),2015-02-25,18:01～19:00,0.0654,0.0583,0.0612,
江戸川 (Edogawa),2015-02-25,17:01～18:00,0.0653,0.0571,0.0608,
江戸川 (Edogawa),2015-02-25,16:01～17:00,0.0638,0.0575,0.0607,
江戸川 (Edogawa),2015-02-25,15:01～16:00,0.0649,0.0571,0.0611,
江戸川 (Edogawa),2015-02-25,14:01～15:00,0.0641,0.0582,0.0610,
江戸川 (Edogawa),2015-02-25,13:01～14:00,0.0634,0.0572,0.0606,
江戸川 (Edogawa),2015-02-25,12:01～13:00,0.0639,0.0579,0.0607,
江戸川 (Edogawa),2015-02-25,11:01～12:00,0.0646,0.0574,0.0614,
江戸川 (Edogawa),2015-02-25,10:01～11:00,0.0637,0.0592,0.0612,
江戸川 (Edogawa),2015-02-25,09:01～10:00,0.0638,0.0581,0.0610,
江戸川 (Edogawa),2015-02-25,08:01～09:00,0.0645,0.0561,0.0607,
江戸川 (Edogawa),2015-02-25,07:01～08:00,0.0672,0.0574,0.0611,
江戸川 (Edogawa),2015-02-25,06:01～07:00,0.0639,0.0581,0.0609,
江戸川 (Edogawa),2015-02-25,05:01～06:00,0.0644,0.0582,0.0611,
江戸川 (Edogawa),2015-02-25,04:01～05:00,0.0646,0.0574,0.0609,
江戸川 (Edogawa),2015-02-25,03:01～04:00,0.0633,0.0557,0.0604,
江戸川 (Edogawa),2015-02-25,02:01～03:00,0.0637,0.0573,0.0609,
江戸川 (Edogawa),2015-02-25,01:01～02:00,0.0643,0.0578,0.0612,
江戸川 (Edogawa),2015-02-25,00:01～01:00,0.0639,0.0582,0.0607,
江戸川 (Edogawa),2015-02-24,23:01～24:00,0.0637,0.0569,0.0605,
江戸川 (Edogawa),2015-02-24,22:01～23:00,0.0659,0.0574,0.0607,
江戸川 (Edogawa),2015-02-24,21:01～22:00,0.0630,0.0559,0.0599,
江戸川 (Edogawa),2015-02-24,20:01～21:00,0.0634,0.0568,0.0606,
江戸川 (Edogawa),2015-02-24,19:01～20:00,0.0639,0.0575,0.0605,
江戸川 (Edogawa),2015-02-24,18:01～19:00,0.0652,0.0568,0.0608,
江戸川 (Edogawa),2015-02-24,17:01～18:00,0.0642,0.0562,0.0608,
江戸川 (Edogawa),2015-02-24,16:01～17:00,0.0634,0.0580,0.0608,
江戸川 (Edogawa),2015-02-24,15:01～16:00,0.0641,0.0571,0.0605,
江戸川 (Edogawa),2015-02-24,14:01～15:00,0.0643,0.0584,0.0609,
江戸川 (Edogawa),2015-02-24,13:01～14:00,0.0650,0.0579,0.0611,
江戸川 (Edogawa),2015-02-24,12:01～13:00,0.0663,0.0585,0.0613,
江戸川 (Edogawa),2015-02-24,11:01～12:00,0.0643,0.0572,0.0606,
江戸川 (Edogawa),2015-02-24,10:01～11:00,0.0650,0.0565,0.0603,
江戸川 (Edogawa),2015-02-24,09:01～10:00,0.0636,0.0552,0.0600,
江戸川 (Edogawa),2015-02-24,08:01～09:00,0.0643,0.0572,0.0606,
江戸川 (Edogawa),2015-02-24,07:01～08:00,0.0625,0.0571,0.0601,
江戸川 (Edogawa),2015-02-24,06:01～07:00,0.0662,0.0572,0.0605,
江戸川 (Edogawa),2015-02-24,05:01～06:00,0.0634,0.0569,0.0602,
江戸川 (Edogawa),2015-02-24,04:01～05:00,0.0626,0.0575,0.0600,
江戸川 (Edogawa),2015-02-24,03:01～04:00,0.0638,0.0573,0.0601,
江戸川 (Edogawa),2015-02-24,02:01～03:00,0.0622,0.0571,0.0598,
江戸川 (Edogawa),2015-02-24,01:01～02:00,0.0644,0.0559,0.0602,
江戸川 (Edogawa),2015-02-24,00:01～01:00,0.0649,0.0560,0.0599,
江戸川 (Edogawa),2015-02-23,23:01～24:00,0.0633,0.0564,0.0600,
江戸川 (Edogawa),2015-02-23,22:01～23:00,0.0647,0.0549,0.0603,
江戸川 (Edogawa),2015-02-23,21:01～22:00,0.0651,0.0576,0.0612,
江戸川 (Edogawa),2015-02-23,20:01～21:00,0.0699,0.0583,0.0641,
江戸川 (Edogawa),2015-02-23,19:01～20:00,0.0801,0.0664,0.0732,
江戸川 (Edogawa),2015-02-23,18:01～19:00,0.0832,0.0596,0.0724,
江戸川 (Edogawa),2015-02-23,17:01～18:00,0.0641,0.0586,0.0614,
江戸川 (Edogawa),2015-02-23,16:01～17:00,0.0643,0.0578,0.0611,
江戸川 (Edogawa),2015-02-23,15:01～16:00,0.0665,0.0587,0.0616,
江戸川 (Edogawa),2015-02-23,14:01～15:00,0.0662,0.0579,0.0618,
江戸川 (Edogawa),2015-02-23,13:01～14:00,0.0657,0.0592,0.0618,
江戸川 (Edogawa),2015-02-23,12:01～13:00,0.0646,0.0567,0.0610,
江戸川 (Edogawa),2015-02-23,11:01～12:00,0.0639,0.0571,0.0609,
江戸川 (Edogawa),2015-02-23,10:01～11:00,0.0636,0.0569,0.0607,
江戸川 (Edogawa),2015-02-23,09:01～10:00,0.0642,0.0551,0.0605,
江戸川 (Edogawa),2015-02-23,08:01～09:00,0.0654,0.0572,0.0613,
江戸川 (Edogawa),2015-02-23,07:01～08:00,0.0679,0.0596,0.0628,
江戸川 (Edogawa),2015-02-23,06:01～07:00,0.0715,0.0612,0.0666,
江戸川 (Edogawa),2015-02-23,05:01～06:00,0.0725,0.0653,0.0692,
江戸川 (Edogawa),2015-02-23,04:01～05:00,0.0711,0.0593,0.0654,
江戸川 (Edogawa),2015-02-23,03:01～04:00,0.0679,0.0599,0.0635,
江戸川 (Edogawa),2015-02-23,02:01～03:00,0.0662,0.0582,0.0614,
江戸川 (Edogawa),2015-02-23,01:01～02:00,0.0658,0.0582,0.0614,
江戸川 (Edogawa),2015-02-23,00:01～01:00,0.0667,0.0588,0.0631,
